Victor Araujo

Recruteur - Sampaio Correa
4 Avr 2027
Dimanche
Processus

Personnalité

Adaptabilité (6) Ambition (8) Controverse (7) Loyauté (14) Pression (6) Professionnalisme (18) Sportivité (4) Tempérament (10)

Profil

Style d'entraînement Démocratique
Diplôme Continental C
Détermination 6
Gestion des joueurs 11
Motivation 10
Discipline 6
Satisfaction professionnelle
92%
Fatigue
0%
Rôle Recruteur
Salaire 11.2K p/s
Contrat 14.03.2030

Performance

Comportement Bon
Efficacité de l'entraînement
27%
Développement des joueurs
45%
Prévention des blessures
55%
Mise en place tactique
15%

Événements récents

A participé à une réunion de recrutement 7j
A participé à une réunion de recrutement 14j
A participé à une réunion de recrutement 14j
A participé à une réunion de recrutement 21j
A participé à une réunion de recrutement 21j
A participé à une réunion de recrutement 28j
A participé à une réunion de recrutement 28j
A participé à une réunion de recrutement 35j

Suivi en cours

81
Joueur Club Statut Capacité Confiance Observé Dernière observation Dernier vote
Riquelme Grêmio Actif 82 / 100 44% 1 21.12.2026 -
Franco Cristaldo Talleres Actif 127 / 114 40% 1 30.11.2026 Plus d'infos
Charlie Webster Burton Albion Actif 110 / 109 40% 1 30.11.2026 -
Luccas Paraízo Leixões Actif 93 / 113 40% 3 28.11.2026 -
Rafael Barbosa Chaves Actif 125 / 99 40% 1 28.11.2026 -
Mika Lusitânia Lourosa Actif 96 / 89 40% 2 24.11.2026 -
Daniel Rivas AVS Actif 96 / 102 40% 2 23.11.2026 -
Dinis Pinto Moreirense Actif 124 / 135 40% 1 23.11.2026 -
Gabi Pereira Chaves Actif 90 / 88 40% 1 22.11.2026 -
Pedro Pelágio Chaves Actif 114 / 102 40% 1 19.11.2026 -
Gastón Novero Notts County Actif 90 / 94 40% 1 19.11.2026 -
Paulité Lusitânia Lourosa Actif 107 / 96 40% 2 15.11.2026 -
Dinis Rodrigues Porto Actif 108 / 116 40% 1 15.11.2026 -
Juan Muñoz Leiria Actif 126 / 111 40% 1 13.11.2026 -
Artem Slesar Zorya Actif 93 / 101 40% 1 12.11.2026 -
Tiago Ribeiro Oliveirense Actif 86 / 125 40% 1 12.11.2026 -
Enrique Peña Zauner Maritimo Actif 121 / 102 40% 1 11.11.2026 -
Robinho Estrela da Amadora Actif 130 / 106 40% 1 11.11.2026 -
Igor Milioransa Académico de Viseu Actif 99 / 85 40% 1 08.11.2026 -
Vitinho Giresunspor Actif 119 / 115 40% 1 08.11.2026 -
Dominik Steczyk Académico de Viseu Actif 87 / 84 40% 1 06.11.2026 -
Cristian Montero Veracruz Actif 112 / 147 40% 1 01.11.2026 -
Alejandro Organista Puebla Actif 106 / 104 40% 1 01.11.2026 -
Bright Godwin Vizela Actif 117 / 109 40% 2 31.10.2026 -
Benjamin Kanurić Admira Wacker Actif 90 / 122 40% 1 31.10.2026 -
Davo Penafiel Actif 121 / 127 40% 1 29.10.2026 -
Nicolás Benedetti Deportivo Cali Actif 114 / 112 40% 1 29.10.2026 -
Matías Fernández Independiente Rivadavia Actif 134 / 124 40% 1 28.10.2026 -
Iano Simão Penafiel Actif 123 / 104 40% 1 26.10.2026 -
Joseph Nduquidi Farense Actif 109 / 104 40% 1 26.10.2026 -
João Teixeira Porto Actif 105 / 103 40% 2 24.10.2026 -
Yann Kitala Vizela Actif 118 / 93 40% 1 24.10.2026 -
Lucas Rodríguez Morelia Actif 112 / 121 40% 1 23.10.2026 -
Miguel Falé Pacos de Ferreira Actif 111 / 100 40% 1 23.10.2026 Plus d'infos
Rayan Lucas Alverca Actif 115 / 133 40% 1 22.10.2026 -
Rodin Quiñónes Dinamo Batumi Actif 108 / 110 40% 1 22.10.2026 -
Camilo Perez Cortulua Actif 123 / 112 40% 3 20.10.2026 -
Facundo Waller Huracán Actif 108 / 128 40% 1 20.10.2026 -
Neto Moura Mirassol Actif 131 / 124 40% 1 19.10.2026 -
Martín Campos Ferro Carril Oeste Actif 129 / 120 40% 1 19.10.2026 -
Federico Martínez Liverpool Montevideo Actif 103 / 108 40% 1 16.10.2026 -
Yeferson Rodallega Envigado Actif 119 / 119 40% 1 11.10.2026 -
Razvan Puscas Astra Actif 115 / 117 40% 1 07.10.2026 -
Bayron Duarte Queretaro Actif 101 / 113 40% 1 05.10.2026 -
Miguel Menino Farense Actif 117 / 95 40% 1 05.10.2026 -
Welinton Torrão Santa Clara Actif 108 / 96 40% 1 03.10.2026 -
Facundo Pons San Martín Actif 122 / 123 40% 1 03.10.2026 -
Thiago Calone All Boys Actif 102 / 104 40% 1 01.10.2026 -
João Graça Rio Ave Actif 88 / 90 40% 1 26.09.2026 -
Juan Ignacio Méndez Instituto Actif 123 / 106 40% 1 26.09.2026 -
Leandro Dias Pacos de Ferreira Actif 107 / 90 40% 1 25.09.2026 -
Rui Pedro Chaves Actif 96 / 94 40% 1 25.09.2026 -
Tiago Esgaio Arouca Actif 134 / 114 40% 1 19.09.2026 -
Lucas Angelini Temperley Actif 116 / 108 40% 1 16.09.2026 -
Pedro Ferreira Leiria Actif 133 / 122 40% 1 13.09.2026 -
Raphael Guzzo Maritimo Actif 97 / 122 40% 1 13.09.2026 -
Walmer Pacheco Deportivo Pereira Actif 117 / 124 40% 1 09.09.2026 -
Maga Leiria Actif 88 / 99 40% 1 09.09.2026 -
Jarleysom Portimonense Actif 120 / 119 40% 1 06.09.2026 -
Rafa Soares Estrela da Amadora Actif 136 / 138 40% 1 06.09.2026 -
Gustavo Torres Atletico Nacional Actif 116 / 112 40% 1 24.08.2026 -
Nahuel Furtado Wanderers Actif 116 / 129 40% 1 24.08.2026 -
João Costa Porto Actif 133 / 105 40% 1 18.08.2026 -
Mateus Pasinato Alianza Lima Actif 114 / 105 40% 1 16.08.2026 -
Oleksandr Svatok Austin FC Actif 137 / 137 40% 1 13.08.2026 -
José Luis Caicedo Barranquilla Actif 139 / 117 40% 1 13.08.2026 -
Ronaldo Pájaro Deportivo Cali Actif 106 / 107 40% 1 12.08.2026 -
Brian Farioli Estudiantes Actif 125 / 117 40% 1 12.08.2026 -
Thauan Lara Portimonense Actif 90 / 107 40% 1 12.08.2026 -
Rúben Pereira Académico de Viseu Actif 108 / 113 40% 1 12.08.2026 -
Eboué Kouassi Leiria Actif 106 / 114 40% 1 10.08.2026 -
Julián Palacios Envigado Actif 114 / 110 40% 1 10.08.2026 -
Tomás O'Connor Gimnasia y Esgrima Actif 126 / 136 40% 1 09.08.2026 -
David Fernández O'Higgins Actif 94 / 125 40% 1 07.08.2026 -
Bryan Róchez Leiria Actif 121 / 99 40% 1 04.08.2026 -
Jeriel De Santis Caracas Actif 101 / 111 40% 1 04.08.2026 -
Cihan Kahraman Académico de Viseu Actif 93 / 84 40% 1 03.08.2026 -
Jonás Acevedo Instituto Actif 124 / 121 40% 1 02.08.2026 -
Teo Rodríguez Pagano San Lorenzo Actif 105 / 118 40% 1 02.08.2026 -
Matías Fernández Colo-Colo Actif 125 / 126 40% 1 01.08.2026 -
Diego Gonçalves Criciuma Actif 122 / 110 40% 1 01.08.2026 -